Skip Page Navigation
NASA JPL Caltech
NASA Logo - Jet Propulsion Laboratory + View the NASA Portal
+ Center for Near-Earth Object Studies
JPL Home Earth Solar System Stars & Galaxies Technology
JPL Solar System Dynamics
BODIES ORBITS EPHEMERIDES TOOLS PHYSICAL DATA DISCOVERY FAQ SITE MAP
IMPORTANT: The SSD Announcement email list is now available. Major changes are coming in the near future, including possible hostname and/or URL changes. To be notified of such changes, subscribe to this email list.

Please visit this page for more details.


JPL Small-Body Database Browser
Search: [ help ]  
(2014 YR14)
Classification: Apollo [NEO]          SPK-ID: 3703011
Ephemeris | Orbit Diagram | Orbital Elements | Mission Design | Physical Parameters | Close-Approach Data ]

[ hide orbit diagram ]

For accurate long-term ephemerides, please instead use our Horizons system.This orbit viewer was implemented using two-body methods, and hence should not be used for determining accurate long-term trajectories (over several years or decades) or planetary encounter circumstances.


[ revert to old Java-based viewer ]

Orbital Elements at Epoch 2459000.5 (2020-May-31.0) TDB
Reference: JPL 13 (heliocentric ecliptic J2000)
 Element Value Uncertainty (1-sigma)   Units 
e .6000684102875913 6.7973e-06  
a 1.969607108204795 3.0149e-05 au
q .7877081018932041 1.8762e-06 au
i 6.647158151757107 9.3551e-05 deg
node 274.929191561596 1.6062e-05 deg
peri 117.3338485864068 0.00023826 deg
M 1.725743065593782 0.016713 deg
tp 2458995.660043398358
(2020-May-26.16004340)
0.046762 TDB
period 1009.642982972995
2.76
0.023182
6.347e-05
d
yr
n .3565616817738326 8.187e-06 deg/d
Q 3.151506114516387 4.8241e-05 au
  Orbit Determination Parameters
   # obs. used (total)      52  
   # delay obs. used      0  
   # Doppler obs. used      2  
   data-arc span      4 days  
   first obs. used      2014-12-27  
   last obs. used      2014-12-31  
   planetary ephem.      DE431  
   SB-pert. ephem.      SB431-N16  
   condition code      4  
   norm. resid. RMS      .29635  
   source      ORB  
   producer      Otto Matic  
   solution date      2017-Apr-06 08:36:42  

Additional Information
 Earth MOID = .00134695 au 
 Jupiter MOID = 2.34866 au 
 T_jup = 3.620 
[ show covariance matrix ]

Ephemeris | Orbit Diagram | Orbital Elements | Mission Design | Physical Parameters | Close-Approach Data ]

Physical Parameter Table
Parameter Symbol Value Units Sigma Reference Notes
absolute magnitude H 26.1   n/a MPO319069  

[ hide close-approach data ]
Close-Approach Data   ...sorted by Date/Time (TDB)
Date/Time (TDB) Time Uncertainty
(days_HH:MM)
Body Nominal Distance (au) Minimum Distance (au) Maximum Distance (au) V-relative (km/s) V-infinity (km/s) JD (TDB) Time Uncertainty (minutes) Semi-major axis (km) Semi-minor axis (km) range-LOV angle (deg) N-sigma BP Orbit Ref. Reference Modified
1964-Jan-19 14:49 7_09:12 Earth 0.411338345569013 0.225041569808149 0.597637278576937 27.3832830595486 27.3830465059714 2438414.117458409 10631.6025572719 9290039.53533081 22.383033111434 -0.341964608734003 15197.9227206272 T 13 CATAB v2.0e-lin.ifort 2017-Nov-29 22:40:49 2018-Dec-11 16:29
1981-Jan-09 01:50 4_08:50 Earth 0.226449662422135 0.13787453850323 0.315025900030874 21.7798900625183 21.7793498179835 2444613.576056975 6289.68261329983 4416982.06845713 10.4640382503182 -0.431146171610518 22555.5963752023 T 13 CATAB v2.0e-lin.ifort 2017-Nov-29 22:40:49 2018-Dec-11 16:29
1983-Aug-13 22:21 4_14:00 Earth 0.114206678615202 0.0878229316473942 0.166636055739954 16.9765728420917 16.9751985203618 2445560.431454732 6599.93857419875 3417641.63405946 120.149168899077 -50.1706966890244 101943.160380845 T 13 CATAB v2.0e-lin.ifort 2017-Nov-29 22:40:49 2018-Dec-11 16:29
1997-Dec-28 01:28 14:26 Earth 0.0246464568718999 0.0170188579728318 0.0322974307386969 15.8019068177559 15.795063882827 2450810.561329237 866.126011904292 382817.238681056 10.6553368462762 -5.41944562146907 30408.3990846944 T 13 CATAB v2.0e-lin.ifort 2017-Nov-29 22:40:49 2018-Dec-11 16:29
2000-Aug-02 00:41 07:21 Earth 0.273652014745702 0.267614556090237 0.279703216549227 22.5118100318808 22.5113775106167 2451758.528802453 440.868742859034 316540.390725212 116.279661659112 -17.7867601291902 100109.876276264 T 13 CATAB v2.0e-lin.ifort 2017-Nov-29 22:40:49 2018-Dec-11 16:29
2012-Jan-19 15:17 05:10 Venus 0.140902200869083 0.140089362864042 0.141715166212949 8.67092230239414 8.66914471732884 2455946.136719050 310.228512938901 41082.8923729722 290.062541562894 -9.39672023713942 9979.80281160476 T 13 CATAB v2.0e-lin.ifort 2017-Nov-29 22:40:49 2018-Dec-11 16:29
2014-Dec-26 04:21 < 00:01 Moon 0.00388725381914471 0.00388688647284294 0.00388762116911185 14.4596557252069 14.4590726471794 2457017.681575493 0.213471463746547 19.3075266286238 4.02244544696897 -18.8512056917563 54146.8476334431 T 13 CATAB v2.0e-lin.ifort 2017-Nov-29 22:40:49 2018-Dec-11 16:29
2014-Dec-26 09:52 < 00:01 Earth 0.00233594767835756 0.00233554036028438 0.00233635499638335 15.1364357350644 15.0608898593677 2457017.911003962 0.20565529346395 20.3044886226345 3.59091772600829 -0.154320043090281 16667.2622707806 T 13 CATAB v2.0e-lin.ifort 2017-Nov-29 22:40:49 2018-Dec-11 16:29
2026-Jan-16 09:25 04:49 Earth 0.348746255349575 0.343984226090567 0.353508288924393 25.4473079762363 25.4470077397148 2461056.892495496 288.767783249732 237471.133858413 23.0688382676038 0.529057834835661 19194.3126444391 T 13 CATAB v2.0e-lin.ifort 2017-Nov-29 22:40:49 2018-Dec-11 16:29
2028-Jul-26 01:57 05:46 Earth 0.379239989111686 0.373730892049395 0.38475280020114 25.693063021391 25.6927895671519 2461978.581413955 346.207652035249 281109.313929708 116.496593510072 -12.1544548227726 96230.1084725273 T 13 CATAB v2.0e-lin.ifort 2017-Nov-29 22:40:49 2018-Dec-11 16:29
2039-Aug-23 15:28 21:40 Earth 0.105227608638391 0.101428746172639 0.109509343715946 13.3595384076831 13.3576429154309 2466024.144470417 1299.96892856556 408782.518647323 129.774531997771 60.3921972318301 101281.24137616 T 13 CATAB v2.0e-lin.ifort 2017-Nov-29 22:40:49 2018-Dec-11 16:29
2050-Nov-18 23:30 3_06:51 Earth 0.193536114077662 0.188022046819571 0.199062238557512 12.0325164891409 12.031372255994 2470129.479316822 4731.33230920005 285611.491122204 62.388185102391 -15.4366724207901 158854.465028461 T 13 CATAB v2.0e-lin.ifort 2017-Nov-29 22:40:49 2018-Dec-11 16:29
2056-Feb-15 13:20 12:51 Mars 0.0911947289480487 0.0903048544198999 0.0933463941117341 14.7656072679707 14.7653946557304 2472044.055337387 770.934530762555 541182.361689034 116.267493364844 -81.8888601979157 116866.056254909 T 13 CATAB v2.0e-lin.ifort 2017-Nov-29 22:40:49 2018-Dec-11 16:29
2062-Jan-10 09:29 14:18 Earth 0.227037864990559 0.214861550621474 0.239214527795262 21.8397224128225 21.8391850442154 2474199.895220526 858.478348101362 607354.221653881 19.6651237253703 1.35719261215465 37481.0041534263 T 13 CATAB v2.0e-lin.ifort 2017-Nov-29 22:40:49 2018-Dec-11 16:29
2064-Jul-22 06:40 10:03 Earth 0.458524872104128 0.448041791072278 0.469014720003644 28.0709715403315 28.0707645292398 2475123.777793275 602.604478709917 530243.618027078 119.253010985067 -9.53521933923762 89501.2168848521 T 13 CATAB v2.0e-lin.ifort 2017-Nov-29 22:40:49 2018-Dec-11 16:29
2075-Aug-29 06:14 19:30 Earth 0.130172422782875 0.126321003097122 0.13413495420712 12.3014776567135 12.2998136102002 2479178.759522004 1170.33700648332 271909.866669775 144.083665759396 44.2003614824235 90625.1648369748 T 13 CATAB v2.0e-lin.ifort 2017-Nov-29 22:40:49 2018-Dec-11 16:29
2086-Dec-21 23:51 02:56 Earth 0.0492399203470162 0.0481250359822956 0.0503548659916308 13.6622808014912 13.6583195285024 2483311.493598421 175.943377518333 55663.7622348857 14.7238225455277 -2.74613234642163 24789.5183756131 T 13 CATAB v2.0e-lin.ifort 2017-Nov-29 22:40:49 2018-Dec-11 16:29
2098-Jan-22 10:26 05:39 Earth 0.454830728625772 0.448728948484977 0.460932522199264 28.6075685838041 28.6073638058663 2487360.934937961 339.040478610379 304296.404476552 35.6723237826586 0.76368748363273 23606.7055349659 T 13 CATAB v2.0e-lin.ifort 2017-Nov-29 22:40:49 2018-Dec-11 16:29
2100-Aug-04 06:06 09:28 Earth 0.246322054292377 0.239140511224805 0.253537617576784 21.64878123559 21.6482815686463 2488284.753954585 567.912435343943 386901.925876373 120.334092375951 -21.8998918165194 107024.87781419 T 13 CATAB v2.0e-lin.ifort 2017-Nov-29 22:40:49 2018-Dec-11 16:29
2111-Oct-04 01:26 3_23:47 Earth 0.217103910384757 0.213597729139564 0.220610719182775 12.0233741416171 12.022353350727 2492362.560000989 5746.72638047407 175820.917279617 127.098947727576 5.88697094813278 49173.3655761001 T 13 CATAB v2.0e-lin.ifort 2017-Nov-29 22:40:49 2018-Dec-11 16:29
2123-Jan-01 23:48 1_08:04 Earth 0.0647053511568429 0.0454913345845097 0.0839549712955915 16.9496533294398 16.9472236864335 2496470.491438475 1923.90231329488 961995.874892198 10.0167220069424 4.33262855008588 65641.5600380059 T 13 CATAB v2.0e-lin.ifort 2017-Nov-29 22:40:49 2018-Dec-11 16:29
2136-Aug-22 17:15 14:15 Earth 0.103290012915323 0.101545756622812 0.105341139097638 13.9938177539388 13.9919742400291 2501452.218971991 855.274854464913 296380.107826047 138.358219730566 71.348077526145 101277.103858865 T 13 CATAB v2.0e-lin.ifort 2017-Nov-29 22:40:49 2018-Dec-11 16:29
2147-Dec-10 20:51 5_06:00 Earth 0.132503714395357 0.109846419495901 0.155266886494548 11.9414192973327 11.9397352318254 2505579.368851617 7560.17149572985 1147771.7014124 30.9214826609453 -9.18842890434765 126255.203954502 T 13 CATAB v2.0e-lin.ifort 2017-Nov-29 22:40:49 2018-Dec-11 16:29
2159-Jan-24 07:33 1_15:59 Earth 0.460222765189885 0.416223317827979 0.50422436491964 28.7536847390274 28.7534833887311 2509641.814779715 2398.77840711267 2194689.45098353 42.4816427924603 1.30681535319024 34355.0645063689 T 13 CATAB v2.0e-lin.ifort 2017-Nov-29 22:40:49 2018-Dec-11 16:29
2161-Aug-08 12:16 2_12:40 Earth 0.206507592731659 0.166604841671935 0.248886363081429 20.1446239119531 20.1439834046689 2510569.010876371 3640.21665613861 2341803.79205695 127.039979354507 -28.2030959813033 107408.651880087 T 13 CATAB v2.0e-lin.ifort 2017-Nov-29 22:40:49 2018-Dec-11 16:29
2184-Jan-11 18:40 3_05:35 Earth 0.201940606513913 0.139283277004157 0.264692124712183 21.1106295526348 21.1100045325914 2518760.277656390 4654.69428859745 3134371.12305608 33.2883526816432 3.79601984786362 54895.6787922338 T 13 CATAB v2.0e-lin.ifort 2017-Nov-29 22:40:49 2018-Dec-11 16:29
2186-Jul-24 20:40 2_06:12 Earth 0.471709694350591 0.415235833212419 0.528414216591317 28.324972208096 28.3247727876922 2519685.360833663 3252.00071027677 2869418.94573355 127.392813857257 -10.3705300684445 93502.8193869298 T 13 CATAB v2.0e-lin.ifort 2017-Nov-29 22:40:49 2018-Dec-11 16:29
2197-Sep-01 21:40 7_00:22 Earth 0.140007729636196 0.113804333301373 0.172771318645257 12.0657102946138 12.0641329163961 2523742.402860986 10101.6373114391 2114837.18920253 163.742180695952 44.6363852665776 86237.3298873969 T 13 CATAB v2.0e-lin.ifort 2017-Nov-29 22:40:49 2018-Dec-11 16:29
Ephemeris | Orbit Diagram | Orbital Elements | Mission Design | Physical Parameters | Close-Approach Data ]
ABOUT SSD CREDITS/AWARDS PRIVACY/COPYRIGHT GLOSSARY LINKS
FirstGov 2020-Jun-01 05:38 UT
(server date/time)  
NASA Home Page
Site Manager:   Ryan S. Park
Webmaster  Alan B. Chamberlin